Total_Precipitation_Accumulation
0.86 1.07 0.94 0.66 0.66 0.57 0.47 0.48 0.37 0.21 0.18 0.34 0.33 0.24 0.20 0.20 0.23 0.25 0.26 0.33 0.32 0.36 0.43 0.49 0.62 0.74 0.85 0.94 1.09 1.30 1.47 1.65 1.88 2.04 2.11 2.10 2.05 1.90 1.82 1.75 1.68 1.65 1.66 1.72
0.94 0.83 0.43 0.33 0.43 0.52 0.54 0.60 0.46 0.31 0.23 0.36 0.35 0.26 0.21 0.21 0.23 0.26 0.27 0.34 0.35 0.36 0.43 0.48 0.58 0.74 0.81 0.88 0.97 1.17 1.38 1.53 1.75 1.91 1.94 2.04 2.02 1.96 1.86 1.78 1.74 1.66 1.63 1.71
0.74 0.48 0.30 0.39 0.53 0.66 0.60 0.54 0.46 0.43 0.37 0.40 0.46 0.40 0.23 0.20 0.20 0.23 0.25 0.31 0.33 0.37 0.40 0.42 0.53 0.68 0.80 0.84 0.93 1.08 1.29 1.46 1.59 1.84 2.12 2.32 2.39 2.24 2.09 1.93 1.79 1.67 1.64 1.64
0.55 0.33 0.35 0.47 0.55 0.64 0.65 0.36 0.39 0.47 0.72 0.76 0.61 0.72 0.28 0.20 0.18 0.22 0.25 0.28 0.28 0.33 0.35 0.37 0.46 0.61 0.73 0.82 0.96 1.11 1.19 1.39 1.59 1.74 2.02 2.28 2.40 2.24 1.94 1.84 1.81 1.76 1.70 1.68
0.68 0.36 0.42 0.49 0.41 0.49 0.53 0.38 0.43 0.54 0.83 0.98 0.65 0.76 0.35 0.21 0.21 0.21 0.25 0.27 0.28 0.32 0.35 0.35 0.41 0.51 0.63 0.81 0.97 1.12 1.21 1.36 1.61 1.78 1.90 2.18 2.36 2.26 2.09 1.98 1.87 1.79 1.76 1.73
0.53 0.38 0.47 0.40 0.30 0.40 0.50 0.60 0.71 0.83 1.35 1.64 0.61 0.59 0.41 0.29 0.32 0.25 0.26 0.30 0.31 0.34 0.40 0.38 0.41 0.50 0.58 0.78 0.90 1.10 1.24 1.30 1.53 1.76 1.91 2.06 2.30 2.41 2.30 2.15 2.06 1.91 1.84 1.78
0.68 0.50 0.48 0.43 0.52 0.58 0.83 1.41 2.08 2.26 2.31 1.39 0.33 0.42 0.45 0.30 0.28 0.34 0.37 0.38 0.37 0.38 0.42 0.44 0.45 0.51 0.54 0.72 0.85 1.02 1.25 1.27 1.36 1.55 1.76 1.96 2.15 2.34 2.44 2.28 2.09 1.99 1.97 1.90
0.85 0.68 0.53 0.53 0.65 0.78 0.86 1.25 1.68 1.57 1.03 0.50 0.29 0.40 0.38 0.31 0.28 0.28 0.33 0.36 0.35 0.37 0.41 0.47 0.49 0.51 0.53 0.60 0.72 0.90 1.13 1.22 1.24 1.35 1.52 1.81 2.08 2.26 2.36 2.38 2.17 2.02 1.93 1.84
0.98 0.65 0.38 0.38 0.40 0.54 0.85 0.93 0.83 1.15 0.83 0.55 0.44 0.38 0.29 0.21 0.19 0.20 0.27 0.32 0.35 0.39 0.43 0.49 0.58 0.58 0.59 0.60 0.65 0.80 1.05 1.17 1.15 1.24 1.35 1.55 1.83 2.11 2.25 2.27 2.26 2.13 2.00 1.89
1.15 0.86 0.45 0.41 0.51 0.58 0.68 0.83 0.96 1.48 1.34 0.81 0.48 0.34 0.43 0.33 0.26 0.23 0.26 0.34 0.39 0.40 0.45 0.50 0.60 0.65 0.65 0.62 0.65 0.78 0.95 1.16 1.19 1.19 1.27 1.38 1.54 1.79 2.03 2.21 2.30 2.15 2.07 2.00
1.04 1.13 0.75 0.68 0.87 0.89 0.78 1.02 1.23 1.26 1.02 0.88 0.66 0.52 0.56 0.46 0.39 0.34 0.31 0.34 0.41 0.43 0.48 0.54 0.60 0.66 0.69 0.67 0.69 0.79 0.91 1.08 1.25 1.28 1.26 1.36 1.48 1.69 1.85 1.92 2.07 2.17 2.15 2.06
1.01 1.29 0.98 0.69 0.62 0.63 0.80 0.93 1.08 1.30 0.99 0.62 0.65 0.60 0.47 0.40 0.37 0.36 0.34 0.33 0.40 0.47 0.54 0.57 0.59 0.62 0.65 0.70 0.73 0.75 0.90 1.04 1.17 1.30 1.33 1.36 1.47 1.68 1.81 1.78 1.78 1.91 2.09 2.09
1.48 1.72 1.38 1.04 0.92 0.83 1.00 0.90 0.89 0.98 0.93 0.72 0.64 0.50 0.35 0.30 0.31 0.32 0.33 0.33 0.38 0.44 0.51 0.55 0.54 0.57 0.66 0.70 0.73 0.73 0.81 0.98 1.13 1.26 1.34 1.32 1.45 1.58 1.66 1.68 1.68 1.67 1.82 1.99
1.65 1.70 1.29 1.19 1.09 1.00 0.97 0.79 0.74 1.02 1.19 0.72 0.46 0.38 0.32 0.31 0.32 0.32 0.33 0.35 0.38 0.41 0.46 0.52 0.57 0.59 0.69 0.73 0.70 0.74 0.80 0.93 1.13 1.28 1.41 1.36 1.43 1.55 1.58 1.58 1.61 1.57 1.63 1.79
1.34 1.34 0.69 0.46 0.41 0.52 0.60 0.56 0.59 0.80 0.77 0.68 0.45 0.37 0.39 0.42 0.46 0.45 0.43 0.39 0.36 0.40 0.44 0.50 0.60 0.70 0.71 0.73 0.72 0.76 0.86 0.92 1.09 1.29 1.46 1.47 1.44 1.50 1.55 1.54 1.60 1.61 1.64 1.70
1.10 1.13 0.60 0.38 0.28 0.37 0.44 0.39 0.43 0.49 0.51 0.47 0.37 0.41 0.38 0.39 0.37 0.40 0.43 0.42 0.42 0.44 0.47 0.47 0.54 0.64 0.71 0.74 0.72 0.76 0.87 0.92 1.01 1.18 1.36 1.45 1.44 1.49 1.53 1.49 1.55 1.61 1.64 1.67
1.05 1.06 0.92 0.55 0.28 0.51 0.70 0.52 0.50 0.50 0.51 0.51 0.51 0.48 0.39 0.37 0.39 0.44 0.47 0.49 0.50 0.53 0.51 0.50 0.55 0.61 0.67 0.72 0.72 0.76 0.84 0.88 0.94 1.06 1.24 1.35 1.38 1.41 1.43 1.43 1.50 1.58 1.63 1.59
0.91 1.03 1.27 0.85 0.63 1.03 0.77 0.43 0.44 0.50 0.54 0.54 0.52 0.46 0.43 0.44 0.46 0.45 0.45 0.52 0.56 0.56 0.54 0.55 0.59 0.61 0.62 0.66 0.71 0.74 0.77 0.83 0.87 0.98 1.14 1.32 1.35 1.35 1.34 1.36 1.40 1.47 1.53 1.55
0.57 1.01 1.51 1.23 0.91 0.66 0.43 0.30 0.44 0.55 0.59 0.53 0.45 0.38 0.36 0.36 0.37 0.39 0.40 0.43 0.51 0.54 0.53 0.55 0.60 0.63 0.60 0.61 0.66 0.71 0.75 0.79 0.86 0.99 1.11 1.24 1.33 1.33 1.28 1.32 1.34 1.35 1.36 1.42
0.66 1.09 1.68 1.44 1.09 0.67 0.45 0.24 0.29 0.48 0.66 0.43 0.37 0.36 0.36 0.37 0.46 0.45 0.39 0.36 0.41 0.43 0.46 0.51 0.55 0.56 0.55 0.57 0.61 0.65 0.74 0.77 0.84 1.00 1.11 1.18 1.23 1.26 1.24 1.26 1.30 1.28 1.24 1.26
0.99 1.50 1.66 1.21 1.00 0.51 0.30 0.19 0.25 0.61 0.72 0.38 0.34 0.35 0.37 0.47 0.55 0.46 0.38 0.37 0.39 0.42 0.46 0.48 0.50 0.50 0.54 0.57 0.59 0.62 0.69 0.79 0.84 0.92 1.00 1.08 1.14 1.16 1.13 1.18 1.20 1.20 1.20 1.19
0.76 1.05 1.07 1.00 1.10 0.61 0.27 0.27 0.55 0.67 0.35 0.28 0.27 0.28 0.32 0.35 0.34 0.33 0.35 0.37 0.41 0.44 0.45 0.47 0.48 0.47 0.50 0.53 0.53 0.58 0.68 0.77 0.79 0.81 0.85 0.95 1.05 1.08 1.04 1.12 1.12 1.10 1.14 1.16
0.61 0.85 0.88 0.84 0.74 0.50 0.37 0.44 0.47 0.39 0.32 0.25 0.25 0.25 0.28 0.31 0.33 0.34 0.37 0.38 0.43 0.45 0.46 0.47 0.46 0.44 0.46 0.51 0.51 0.56 0.64 0.69 0.78 0.78 0.81 0.88 0.97 1.04 1.04 1.07 1.08 1.08 1.06 1.07
0.44 0.48 0.63 0.57 0.43 0.36 0.34 0.32 0.28 0.24 0.26 0.25 0.25 0.27 0.29 0.32 0.33 0.36 0.37 0.40 0.45 0.48 0.49 0.49 0.46 0.45 0.50 0.54 0.54 0.57 0.62 0.67 0.75 0.77 0.80 0.85 0.92 1.02 1.01 1.03 1.03 1.05 1.07 1.12
0.38 0.40 0.49 0.46 0.34 0.27 0.23 0.23 0.25 0.22 0.20 0.21 0.21 0.24 0.28 0.30 0.33 0.35 0.39 0.42 0.47 0.50 0.49 0.47 0.44 0.45 0.50 0.53 0.55 0.56 0.59 0.64 0.71 0.75 0.76 0.80 0.85 0.98 1.01 1.03 1.05 1.06 1.03 1.21
0.28 0.37 0.45 0.41 0.31 0.36 0.29 0.23 0.24 0.24 0.23 0.23 0.24 0.25 0.25 0.28 0.32 0.35 0.41 0.44 0.45 0.46 0.45 0.43 0.42 0.44 0.50 0.52 0.54 0.56 0.58 0.62 0.68 0.74 0.77 0.77 0.81 0.93 0.96 0.99 1.06 1.10 1.08 1.11